| time (UTC) | temp F | wind direction | speed MPH | gust MPH | rain 1hr in | rain 24hr in | rain mn in | humidity % | barometer mb |
| 20260508014518 | 50 | 338 | 3.0 | 3.0 | 0.00 | 0.00 | 0.00 | 36 | 1010.7 |
| 20260508013516 | 50 | 338 | 3.0 | 4.0 | 0.00 | 0.00 | 0.00 | 37 | 1010.5 |
| 20260508012516 | 50 | 338 | 4.0 | 5.0 | 0.00 | 0.00 | 0.00 | 37 | 1010.5 |
| 20260508011516 | 50 | 338 | 4.0 | 5.0 | 0.00 | 0.00 | 0.00 | 38 | 1010.4 |
| 20260508010516 | 51 | 338 | 4.0 | 5.0 | 0.00 | 0.00 | 0.00 | 37 | 1010.4 |
| 20260508005516 | 52 | 338 | 4.0 | 8.0 | 0.00 | 0.00 | 0.00 | 37 | 1010.2 |
| 20260508004516 | 53 | 338 | 5.0 | 10.0 | 0.00 | 0.00 | 0.00 | 35 | 1010.0 |
| 20260508003536 | 53 | 338 | 5.0 | 9.0 | 0.00 | 0.00 | 0.00 | 34 | 1009.8 |
| 20260508002516 | 55 | 338 | 4.0 | 9.0 | 0.00 | 0.00 | 0.00 | 34 | 1009.8 |
| 20260508001518 | 55 | 293 | 4.0 | 10.0 | 0.00 | 0.00 | 0.00 | 32 | 1009.8 |
| 20260508000516 | 55 | 315 | 5.0 | 10.0 | 0.00 | 0.00 | 0.00 | 32 | 1009.7 |
| 20260507235516 | 56 | 338 | 5.0 | 11.0 | 0.00 | 0.00 | 0.00 | 32 | 1009.6 |
| 20260507234516 | 56 | 315 | 7.0 | 11.0 | 0.00 | 0.00 | 0.00 | 30 | 1009.8 |
| 20260507233518 | 57 | 315 | 5.0 | 11.0 | 0.00 | 0.00 | 0.00 | 30 | 1009.9 |
| 20260507232558 | 57 | 293 | 7.0 | 15.0 | 0.00 | 0.00 | 0.00 | 28 | 1009.7 |
| 20260507231516 | 56 | 293 | 10.0 | 15.0 | 0.00 | 0.00 | 0.00 | 29 | 1009.7 |
| 20260507230516 | 57 | 293 | 6.0 | 14.0 | 0.00 | 0.00 | 0.00 | 29 | 1009.8 |
| 20260507225516 | 57 | 293 | 4.0 | 13.0 | 0.00 | 0.00 | 0.00 | 31 | 1009.8 |
| 20260507224516 | 58 | 293 | 6.0 | 15.0 | 0.00 | 0.00 | 0.00 | 30 | 1009.9 |
| 20260507223518 | 57 | 293 | 7.0 | 12.0 | 0.00 | 0.00 | 0.00 | 31 | 1009.9 |
| 20260507222516 | 57 | 270 | 6.0 | 12.0 | 0.00 | 0.00 | 0.00 | 32 | 1009.7 |
| 20260507221516 | 57 | 293 | 8.0 | 19.0 | 0.00 | 0.00 | 0.00 | 32 | 1009.7 |
| 20260507220537 | 57 | 270 | 9.0 | 16.0 | 0.00 | 0.00 | 0.00 | 30 | 1009.8 |
| 20260507215516 | 57 | 293 | 9.0 | 16.0 | 0.00 | 0.00 | 0.00 | 32 | 1009.6 |
| 20260507214516 | 57 | 270 | 10.0 | 20.0 | 0.00 | 0.00 | 0.00 | 32 | 1009.6 |
| 20260507213516 | 58 | 270 | 7.0 | 17.0 | 0.00 | 0.00 | 0.00 | 33 | 1009.6 |
| 20260507212516 | 57 | 270 | 9.0 | 18.0 | 0.00 | 0.00 | 0.00 | 35 | 1009.7 |
| 20260507211536 | 58 | 293 | 6.0 | 16.0 | 0.00 | 0.00 | 0.00 | 38 | 1009.6 |
| 20260507210517 | 57 | 315 | 9.0 | 16.0 | 0.00 | 0.00 | 0.00 | 35 | 1009.5 |
| 20260507205516 | 57 | 293 | 6.0 | 14.0 | 0.00 | 0.00 | 0.00 | 37 | 1009.6 |
| 20260507204516 | 56 | 270 | 7.0 | 13.0 | 0.00 | 0.00 | 0.00 | 36 | 1009.7 |
| 20260507203516 | 56 | 270 | 6.0 | 11.0 | 0.00 | 0.00 | 0.00 | 41 | 1009.8 |
| 20260507202517 | 56 | 315 | 8.0 | 15.0 | 0.00 | 0.00 | 0.00 | 42 | 1009.9 |
| 20260507201517 | 57 | 315 | 7.0 | 13.0 | 0.00 | 0.00 | 0.00 | 40 | 1010.1 |
| 20260507200516 | 56 | 315 | 6.0 | 14.0 | 0.00 | 0.00 | 0.00 | 40 | 1010.1 |
| 20260507195536 | 55 | 293 | 8.0 | 16.0 | 0.00 | 0.00 | 0.00 | 40 | 1010.3 |
| 20260507194516 | 56 | 270 | 8.0 | 20.0 | 0.00 | 0.00 | 0.00 | 37 | 1010.2 |
| 20260507193516 | 56 | 270 | 5.0 | 12.0 | 0.00 | 0.00 | 0.00 | 41 | 1010.3 |
| 20260507192516 | 55 | 338 | 7.0 | 15.0 | 0.00 | 0.00 | 0.00 | 42 | 1010.3 |
| 20260507191516 | 54 | 293 | 4.0 | 9.0 | 0.00 | 0.00 | 0.00 | 43 | 1010.4 |
| 20260507190516 | 54 | 315 | 8.0 | 18.0 | 0.00 | 0.00 | 0.00 | 45 | 1010.5 |
| 20260507185516 | 54 | 225 | 5.0 | 11.0 | 0.00 | 0.00 | 0.00 | 42 | 1010.6 |
| 20260507184516 | 54 | 270 | 5.0 | 12.0 | 0.00 | 0.00 | 0.00 | 42 | 1010.7 |
| 20260507183516 | 53 | 270 | 6.0 | 18.0 | 0.00 | 0.00 | 0.00 | 44 | 1010.8 |
| 20260507182516 | 54 | 270 | 7.0 | 14.0 | 0.00 | 0.00 | 0.00 | 45 | 1011.0 |
| 20260507181516 | 53 | 248 | 5.0 | 11.0 | 0.00 | 0.00 | 0.00 | 45 | 1010.9 |
| 20260507180515 | 52 | 293 | 4.0 | 9.0 | 0.00 | 0.00 | 0.00 | 46 | 1011.1 |
| 20260507175516 | 53 | 270 | 4.0 | 13.0 | 0.00 | 0.00 | 0.00 | 45 | 1011.2 |
| 20260507174515 | 53 | 338 | 3.0 | 9.0 | 0.00 | 0.00 | 0.00 | 47 | 1011.4 |
| 20260507173517 | 52 | 270 | 5.0 | 12.0 | 0.00 | 0.00 | 0.00 | 45 | 1011.5 |
| 20260507172535 | 52 | 225 | 6.0 | 11.0 | 0.00 | 0.00 | 0.00 | 46 | 1011.7 |
| 20260507171515 | 52 | 0 | 3.0 | 5.0 | 0.00 | 0.00 | 0.00 | 48 | 1011.7 |
| 20260507170536 | 51 | 113 | 4.0 | 8.0 | 0.00 | 0.00 | 0.00 | 50 | 1011.9 |
| 20260507165536 | 50 | 90 | 5.0 | 10.0 | 0.00 | 0.00 | 0.00 | 52 | 1012.0 |
| 20260507164515 | 50 | 68 | 6.0 | 12.0 | 0.00 | 0.00 | 0.00 | 50 | 1012.0 |
| 20260507163515 | 49 | 90 | 6.0 | 9.0 | 0.00 | 0.00 | 0.00 | 50 | 1011.9 |
| 20260507162536 | 49 | 90 | 3.0 | 10.0 | 0.00 | 0.00 | 0.00 | 51 | 1011.9 |
| 20260507161516 | 49 | 315 | 3.0 | 8.0 | 0.00 | 0.00 | 0.00 | 48 | 1011.9 |
| 20260507160515 | 49 | 0 | 2.0 | 5.0 | 0.00 | 0.00 | 0.00 | 51 | 1012.2 |
| 20260507155516 | 49 | 68 | 5.0 | 9.0 | 0.00 | 0.00 | 0.00 | 48 | 1012.3 |
| 20260507154517 | 49 | 45 | 3.0 | 9.0 | 0.00 | 0.00 | 0.00 | 50 | 1012.6 |
| 20260507153535 | 49 | 270 | 2.0 | 6.0 | 0.00 | 0.00 | 0.00 | 46 | 1012.6 |
| 20260507152516 | 50 | 135 | 3.0 | 6.0 | 0.00 | 0.00 | 0.00 | 48 | 1012.6 |
| 20260507151515 | 48 | 293 | 4.0 | 7.0 | 0.00 | 0.00 | 0.00 | 49 | 1012.7 |
| 20260507150515 | 48 | 315 | 3.0 | 5.0 | 0.00 | 0.00 | 0.00 | 50 | 1012.9 |
| 20260507145515 | 48 | 45 | 3.0 | 7.0 | 0.00 | 0.00 | 0.00 | 50 | 1013.1 |
| 20260507144515 | 48 | 90 | 1.0 | 7.0 | 0.00 | 0.00 | 0.00 | 53 | 1013.2 |
| 20260507143515 | 48 | 248 | 2.0 | 4.0 | 0.00 | 0.00 | 0.00 | 52 | 1013.1 |
| 20260507142515 | 47 | 158 | 3.0 | 6.0 | 0.00 | 0.00 | 0.00 | 56 | 1013.3 |
| 20260507141516 | 46 | 0.0 | 3.0 | 0.00 | 0.00 | 0.00 | 57 | 1013.6 | |
| 20260507140515 | 45 | 113 | 1.0 | 5.0 | 0.00 | 0.00 | 0.00 | 61 | 1013.6 |
| 20260507135636 | 43 | 113 | 1.0 | 3.0 | 0.00 | 0.00 | 0.00 | 63 | 1013.6 |
| 20260507134515 | 43 | 90 | 2.0 | 3.0 | 0.00 | 0.00 | 0.00 | 63 | 1013.5 |
| 20260507133515 | 41 | 0.0 | 3.0 | 0.00 | 0.00 | 0.00 | 66 | 1013.6 | |
| 20260507132515 | 40 | 113 | 2.0 | 4.0 | 0.00 | 0.00 | 0.00 | 68 | 1013.5 |
| 20260507131515 | 39 | 203 | 1.0 | 2.0 | 0.00 | 0.00 | 0.00 | 69 | 1013.5 |
| 20260507130515 | 39 | 248 | 1.0 | 4.0 | 0.00 | 0.00 | 0.00 | 69 | 1013.9 |
| 20260507125515 | 39 | 180 | 1.0 | 4.0 | 0.00 | 0.00 | 0.00 | 70 | 1013.9 |
| 20260507124517 | 38 | 158 | 1.0 | 4.0 | 0.00 | 0.00 | 0.00 | 71 | 1013.8 |
| 20260507123517 | 38 | 158 | 1.0 | 5.0 | 0.00 | 0.00 | 0.00 | 71 | 1013.7 |
| 20260507122517 | 38 | 180 | 1.0 | 5.0 | 0.00 | 0.00 | 0.00 | 72 | 1013.6 |
| 20260507121517 | 37 | 0.0 | 2.0 | 0.00 | 0.00 | 0.00 | 73 | 1013.5 | |
| 20260507120519 | 35 | 0.0 | 0.0 | 0.00 | 0.00 | 0.00 | 73 | 1013.6 | |
| 20260507115517 | 35 | 0.0 | 2.0 | 0.00 | 0.00 | 0.00 | 75 | 1013.5 | |
| 20260507114517 | 35 | 225 | 1.0 | 4.0 | 0.00 | 0.00 | 0.00 | 74 | 1013.6 |
| 20260507113517 | 35 | 225 | 3.0 | 6.0 | 0.00 | 0.00 | 0.00 | 73 | 1013.6 |
| 20260507112517 | 35 | 225 | 3.0 | 9.0 | 0.00 | 0.00 | 0.00 | 73 | 1013.6 |
| 20260507111517 | 35 | 225 | 4.0 | 8.0 | 0.00 | 0.00 | 0.00 | 72 | 1013.6 |
| 20260507110537 | 35 | 225 | 3.0 | 7.0 | 0.00 | 0.00 | 0.00 | 73 | 1013.6 |
| 20260507105517 | 35 | 225 | 3.0 | 9.0 | 0.00 | 0.00 | 0.00 | 74 | 1013.5 |
| 20260507104517 | 34 | 225 | 3.0 | 6.0 | 0.00 | 0.00 | 0.00 | 75 | 1013.5 |
| 20260507103518 | 34 | 225 | 3.0 | 6.0 | 0.00 | 0.00 | 0.00 | 75 | 1013.5 |
| 20260507102517 | 33 | 225 | 3.0 | 6.0 | 0.00 | 0.00 | 0.00 | 76 | 1013.5 |
| 20260507101517 | 33 | 225 | 2.0 | 4.0 | 0.00 | 0.00 | 0.00 | 76 | 1013.6 |
| 20260507100517 | 33 | 225 | 3.0 | 6.0 | 0.00 | 0.00 | 0.00 | 77 | 1013.7 |
| 20260507095517 | 33 | 225 | 1.0 | 4.0 | 0.00 | 0.00 | 0.00 | 78 | 1013.6 |
| 20260507094517 | 32 | 0.0 | 3.0 | 0.00 | 0.00 | 0.00 | 78 | 1013.6 | |
| 20260507093518 | 32 | 225 | 2.0 | 4.0 | 0.00 | 0.00 | 0.00 | 78 | 1013.7 |
| 20260507092517 | 32 | 225 | 2.0 | 4.0 | 0.00 | 0.00 | 0.00 | 78 | 1013.9 |
| 20260507091517 | 31 | 0.0 | 2.0 | 0.00 | 0.00 | 0.00 | 80 | 1013.9 | |
| 20260507090517 | 31 | 0.0 | 0.0 | 0.00 | 0.00 | 0.00 | 81 | 1014.0 | |
| 20260507085517 | 31 | 248 | 1.0 | 2.0 | 0.00 | 0.00 | 0.00 | 81 | 1014.0 |
| 20260507084517 | 31 | 0.0 | 2.0 | 0.00 | 0.00 | 0.00 | 82 | 1014.1 | |
| 20260507083537 | 31 | 248 | 2.0 | 4.0 | 0.00 | 0.00 | 0.00 | 81 | 1014.0 |
| 20260507082517 | 31 | 0.0 | 0.0 | 0.00 | 0.00 | 0.00 | 79 | 1014.2 | |
| 20260507081517 | 31 | 0.0 | 2.0 | 0.00 | 0.00 | 0.00 | 80 | 1014.1 | |
| 20260507080517 | 30 | 0.0 | 1.0 | 0.00 | 0.00 | 0.00 | 82 | 1014.2 | |
| 20260507075517 | 30 | 225 | 2.0 | 3.0 | 0.00 | 0.00 | 0.00 | 83 | 1014.2 |
| 20260507074517 | 30 | 248 | 2.0 | 3.0 | 0.00 | 0.00 | 0.00 | 82 | 1014.2 |
| 20260507073517 | 30 | 0.0 | 0.0 | 0.00 | 0.00 | 0.00 | 82 | 1014.3 | |
| 20260507072517 | 30 | 0.0 | 2.0 | 0.00 | 0.00 | 0.00 | 80 | 1014.1 | |
| 20260507071517 | 30 | 248 | 1.0 | 2.0 | 0.00 | 0.00 | 0.00 | 78 | 1014.2 |
| 20260507070517 | 31 | 180 | 2.0 | 3.0 | 0.00 | 0.00 | 0.00 | 74 | 1014.3 |
| 20260507065517 | 32 | 0.0 | 2.0 | 0.00 | 0.00 | 0.00 | 74 | 1014.4 | |
| 20260507064517 | 32 | 0.0 | 1.0 | 0.00 | 0.00 | 0.00 | 74 | 1014.5 | |
| 20260507063518 | 32 | 248 | 1.0 | 3.0 | 0.00 | 0.00 | 0.00 | 74 | 1014.6 |
| 20260507062517 | 32 | 248 | 1.0 | 2.0 | 0.00 | 0.00 | 0.00 | 72 | 1014.6 |
| 20260507061517 | 32 | 0.0 | 0.0 | 0.00 | 0.00 | 0.00 | 71 | 1014.8 | |
| 20260507060517 | 32 | 0.0 | 0.0 | 0.00 | 0.00 | 0.00 | 71 | 1014.8 | |
| 20260507055517 | 33 | 248 | 1.0 | 2.0 | 0.00 | 0.00 | 0.00 | 71 | 1014.7 |
| 20260507054516 | 33 | 180 | 1.0 | 2.0 | 0.00 | 0.00 | 0.00 | 70 | 1015.0 |
| 20260507053517 | 33 | 158 | 1.0 | 2.0 | 0.00 | 0.00 | 0.00 | 69 | 1014.9 |
| 20260507052516 | 34 | 158 | 2.0 | 4.0 | 0.00 | 0.00 | 0.00 | 68 | 1014.9 |
| 20260507051537 | 34 | 158 | 3.0 | 4.0 | 0.00 | 0.00 | 0.00 | 66 | 1014.9 |
| 20260507050517 | 35 | 158 | 4.0 | 5.0 | 0.00 | 0.00 | 0.00 | 65 | 1015.3 |
| 20260507045515 | 36 | 180 | 2.0 | 3.0 | 0.00 | 0.00 | 0.00 | 64 | 1015.3 |
| 20260507044515 | 36 | 0.0 | 0.0 | 0.00 | 0.00 | 0.00 | 64 | 1015.6 | |
| 20260507043517 | 35 | 0.0 | 0.0 | 0.00 | 0.00 | 0.00 | 66 | 1015.5 | |
| 20260507042515 | 35 | 0.0 | 0.0 | 0.00 | 0.00 | 0.00 | 65 | 1015.7 | |
| 20260507041515 | 35 | 0.0 | 0.0 | 0.00 | 0.00 | 0.00 | 65 | 1015.7 | |
| 20260507040535 | 36 | 0.0 | 0.0 | 0.00 | 0.00 | 0.00 | 63 | 1015.8 | |
| 20260507035515 | 37 | 0.0 | 0.0 | 0.00 | 0.00 | 0.00 | 60 | 1015.8 | |
| 20260507034515 | 38 | 0.0 | 0.0 | 0.00 | 0.00 | 0.00 | 59 | 1015.9 | |
| 20260507033537 | 38 | 0.0 | 0.0 | 0.00 | 0.00 | 0.00 | 58 | 1015.9 | |
| 20260507032517 | 38 | 0.0 | 0.0 | 0.00 | 0.00 | 0.00 | 58 | 1015.9 | |
| 20260507031517 | 38 | 0.0 | 0.0 | 0.00 | 0.00 | 0.00 | 58 | 1015.9 | |
| 20260507030517 | 38 | 0.0 | 0.0 | 0.00 | 0.00 | 0.00 | 57 | 1015.9 | |
| 20260507025517 | 38 | 0.0 | 0.0 | 0.00 | 0.00 | 0.00 | 58 | 1016.0 | |
| 20260507024537 | 38 | 315 | 1.0 | 1.0 | 0.00 | 0.00 | 0.00 | 58 | 1016.0 |
| 20260507023517 | 38 | 315 | 2.0 | 2.0 | 0.00 | 0.00 | 0.00 | 58 | 1016.0 |
| 20260507022518 | 38 | 315 | 1.0 | 3.0 | 0.00 | 0.00 | 0.00 | 58 | 1015.7 |
| 20260507021519 | 38 | 0.0 | 0.0 | 0.00 | 0.00 | 0.00 | 57 | 1015.6 | |
| 20260507020537 | 39 | 315 | 1.0 | 2.0 | 0.00 | 0.00 | 0.00 | 57 | 1015.8 |
| 20260507015517 | 39 | 293 | 1.0 | 2.0 | 0.00 | 0.00 | 0.00 | 56 | 1015.4 |